CARTOSAT-2E (42767 NORAD) Tracking and Keplerian Element Data

This shows tracking and keplerian element data for the satellite.

Feedback or suggestion? Click here.




ElementValue
Catalog42767
NameCARTOSAT-2E
Epoch Orbit7813
Epoch Day323.81656354
Epoch Year2018
RAAN19.5009
Inclination97.5029
Eccentricity0.0007698
Argument of Perigee244.9872
Mean Anonmoly115.0562
Mean Motion15.19180457
Decay Rate3.44E-06
L11 42767U 17036C 18323.81656354 .00000344 00000-0 19646-4 0 9999
L22 42767 97.5029 19.5009 0007698 244.9872 115.0562 15.19180457 78130

Live tracking and technical data element details for CARTOSAT-2E (NORAD 42767). CARTOSAT-2E can be tracked NOW for your location showing map with azimuth and elevation plus other details from your city location.

Track the satellite on the map from your city or location and see movement details for azimuth, elevation, latitude, longitude, range, height, and movement on the map or in text.







IsCatalogInMostPopularTable: catalog: 42767, numindb: 122
Update: records affected: 1



GetName: 42767 CARTOSAT-2E

Hit Count: updated at: Wed, 21 Nov 2018 06:30:00 GMT